Weather in Bobur

Uzbekistan     40°15′19″N   69°14′54″E
temp.,
°C
wind,
m/s
gust,
m/s
humid.,
%
clouds,
%
prec.,
mm/h
press.,
hPa
HPBL,
m
11 may, tue
tue1123:00+20wnw2465100 0.5 1012141
02:00+18wsw2376100 0.0 101381
05:00+17nw2279100 0.0 101435
08:00+21wnw3456100 0.0 1015519
11:00+26nw55241 0.0 10151551
14:00+29nw55180 0.0 10142211
17:00+29nw54180 0.0 10142492
20:00+22n38281 0.0 1015122
12 may, wed
wed1223:00+19sw113719 0.0 101412
02:00+19w33350 0.0 101317
05:00+16wnw22450 0.0 101411
08:00+22wnw23350 0.0 1014366
11:00+26nw44260 0.0 10131732
14:00+29nw45210 0.0 10122463
17:00+28nw55210 0.0 10112686
20:00+23w34290 0.0 101149
13 may, thu
thu1323:00+20wsw34460 0.0 101251
02:00+18wsw23550 0.0 101144
05:00+16sw22590 0.0 101220
08:00+20w44320 0.0 1013590
11:00+23w32290 0.0 10121170
14:00+27wnw32250 0.0 10101699
17:00+27wnw33230 0.0 10102037
20:00+23sw46320 0.0 101186
14 may, fri
fri1423:00+20sw3334100 0.0 101137
02:00+18wsw474330 0.0 1011164
05:00+16sw224424 0.0 101215
08:00+20w34280 0.0 1013641
11:00+24nw32231 0.0 10121044
14:00+28nw3320100 0.0 10101554
17:00+29nnw33220 0.0 10091959
20:00+25wsw33306 0.0 100919
15 may, sat
sat1523:00+21wnw11340 0.0 100911
02:00+19w22365 0.0 100917
05:00+17wsw22490 0.0 101018
08:00+21w22360 0.0 1011451
11:00+27nw21270 0.0 1009911
14:00+31nnw33210 0.0 10071652
17:00+31nnw331942 0.0 10062918
20:00+26w222773 0.0 100616